Volver al catálogo

STARLINK-6320

ActivoComunicacionesVLEO
NORAD 57336·PAYLOAD·🇺🇸 United States

Lanzado Jul 16, 2023 desde Cape Canaveral Space Force Station

Loading…

Próximos Pases (próximas 24 horas)

TLE

ActualizadoSource: CelesTrak SupGP

Época: Sep 15, 2026, 02:07 UTC

1 57336C 23099J   26258.08868056 -.00015280  00000+0 -55377-3 0  2586
2 57336  43.0007 259.5808 0000967 277.5547 306.5459 15.27568073    13

Sigue STARLINK-6320 en tiempo real con AllMySat

Download on the App Store